Location: Unspecified
(43.3830°N, 0.0000°E)
Time: 05:02:44
(UTC+00:00)

Transit 2A - Pass Details

Date: 26 June 2019
Orbit: 596 x 962 km, 66.7° (Epoch: 16 August)

Event Time Altitude Azimuth Distance (km) Brightness Sun altitude
Exits shadow 01:35:10 - 268° (W) 3,611 9.2 -19.9°
Reaches altitude 10° 01:38:42 10° 287° (WNW) 2,690 8.7 -19.7°
Maximum altitude 01:42:36 17° 326° (NW) 2,217 8.7 -19.4°
Drops below altitude 10° 01:46:25 10° 4° (N) 2,618 9.8 -19.1°
Sets 01:49:55 0° 25° (NNE) 3,504 11.1 -18.8°
